CZ-4C DEB, 42670

Orbit data source: Space-Track

CZ-4C DEB, 42670 is space debris in SSO originally from a launch on Thu, 26 Nov 2015 UTC launched from the Taiyaun Space Center, China (TSC). Debris objects in space refer to the collection of defunct objects orbiting the Earth. Examples of debris include non-operational satellites, rocket bodies, and fragments generated from explosions, collisions, or faulty payload assembly.

Loading next visibility...
CZ-4C DEB details
Identifier
42670, 2015-069C
Orbit
SSO
Last TLE update2 days ago
Origin
Flag of CNCNSA (CN / PRC)
ManufacturerUnknown
MissionSpacecraft
Bus & MotorUnknown
MassUnknown
Launch date (UTC)
2015-11-26 (9 years ago)
Launch vehicleUnknown
Launch site
Taiyaun Space Center, China (TSC)
Object type
Payload
Rocket body
Debris
Shape & HBRUnknown
Radar Cross SectionSmall (<0.1 m²)

Expand to show TLE details & history

TLE from 2 days ago
0 CZ-4C DEB
1 42670U 15069C   24359.43873842  .00014251  00000-0  59652-3 0  9995
2 42670  97.5539  55.0045 0068964 265.9807  93.3543 15.21475054450682
Epoch: 2024-12-24T10:31Z
Definitive object data (Epoch: 2024-12-24T10:31:46.999Z)
Latitude-0.00006°
Longitude163.61185°
Altitude507.581 km
Speed7.609 km/s
True Right ascension03h 40m 01s
True Declination0° 00' 00"
Sunlit
Object was in full shadow at TLE epoch
Visualization TLE readout
Latitude21.50626°
Longitude162.81494°
Altitude529.796 km
Speed7.586 km/s
Apparent Right ascension02h 57m 01s
Apparent Declination-7° 57' 42"
Sunlit
Object is in full shadow
Visualization observer readout
Local Sidereal Time14:04:35
Azimuth336.34° NNW
Elevation-55.963°
Doppler factor1
Orbital elements
Apogee altitude545.784 km
Perigee altitude450.938 km
Semi-major axis6,876.498 km
Eccentricity0.0068964
Inclination97.5539°
RAAN55.0045°
Arg. of periapsis265.9807°
True anomaly94.14279°
Mean anomaly93.3543°
Eccentric anomaly93.74859°
Mean motion3.80621 °/min
BSTAR0.00059652
Orbital period94.58 mins
Loading maneuver chart data...
Loading historical data...
Loading historical data...
Loading historical data...
Loading historical data...
Loading historical data...
Loading historical data...
Loading historical data...

CZ-4C DEB Visibility forecast

Observer location: undefined°, undefined

Span
Click to sort rows by Start time (UTC) header in descending order
Start Az.
Max El. time (UTC)
Max El. Az.
Max El.
End time (UTC)
End Az.
6 mins2024-12-26 16:45:42.230Z14.708° NNE2024-12-26 16:48:42.230Z64.957° ENE44.501°2024-12-26 16:51:42.230Z189.209° SSW
5 mins2024-12-27 03:23:42.230Z120.974° SE2024-12-27 03:25:42.230Z73.253° E27.594°2024-12-27 03:28:42.230Z12.411° NNE
|